Time,TemperatureF,DewpointF,PressureIn,WindDirection,WindDirectionDegrees,WindSpeedMPH,WindSpeedGustMPH,Humidity,HourlyPrecipIn,Conditions,Clouds,dailyrainin,SoftwareType,DateUTC
2013-02-23 00:00:00,32.7,27.5,30.05,SSW,203,3.0,10.0,81,0.00,,BKN070,0.00,VWS V14.01,2013-02-23 05:00:00,
2013-02-23 00:01:00,32.7,27.5,30.05,SW,225,5.0,10.0,81,0.00,,BKN070,0.00,VWS V14.01,2013-02-23 05:01:00,
2013-02-23 00:06:00,32.7,27.5,30.05,WSW,245,6.0,6.0,81,0.00,,BKN070,0.00,VWS V14.01,2013-02-23 05:06:00,
2013-02-23 00:11:00,32.7,27.2,30.05,SW,233,7.0,8.0,80,0.00,,BKN070,0.00,VWS V14.01,2013-02-23 05:11:00,
2013-02-23 00:16:00,32.7,27.2,30.05,SSW,208,6.0,11.0,80,0.00,,BKN070,0.00,VWS V14.01,2013-02-23 05:16:00,
2013-02-23 00:21:00,32.7,27.2,30.04,SW,217,5.0,11.0,80,0.00,,BKN070,0.00,VWS V14.01,2013-02-23 05:21:00,
2013-02-23 00:26:00,32.6,27.1,30.04,SSW,210,5.0,11.0,80,0.00,,BKN070,0.00,VWS V14.01,2013-02-23 05:26:00,
2013-02-23 00:30:00,32.8,27.0,30.04,SW,228,10.0,14.0,79,0.00,,OVC,0.00,VWS V14.01,2013-02-23 05:30:00,
2013-02-23 00:31:00,32.6,27.1,30.04,SSW,200,5.0,11.0,80,0.00,,BKN070,0.00,VWS V14.01,2013-02-23 05:31:00,
2013-02-23 00:37:00,32.6,27.1,30.04,SW,233,5.0,7.0,80,0.00,,OVC070,0.00,VWS V14.01,2013-02-23 05:37:00,
2013-02-23 00:42:00,32.7,27.2,30.05,SW,233,7.0,10.0,80,0.00,,OVC070,0.00,VWS V14.01,2013-02-23 05:42:00,
2013-02-23 00:47:00,32.6,27.1,30.04,SW,222,6.0,10.0,80,0.00,,OVC070,0.00,VWS V14.01,2013-02-23 05:47:00,
2013-02-23 00:52:00,32.6,27.1,30.05,WSW,238,7.0,10.0,80,0.00,,OVC070,0.00,VWS V14.01,2013-02-23 05:52:00,
2013-02-23 00:57:00,32.7,27.2,30.04,SW,224,6.0,10.0,80,0.00,,OVC070,0.00,VWS V14.01,2013-02-23 05:57:00,
2013-02-23 01:00:00,32.4,28.1,30.04,SW,236,8.0,15.0,84,0.00,,OVC,0.00,VWS V14.01,2013-02-23 06:00:00,
2013-02-23 01:02:00,32.7,27.2,30.04,WSW,249,9.0,10.0,80,0.00,,OVC070,0.00,VWS V14.01,2013-02-23 06:02:00,
2013-02-23 01:07:00,32.7,27.2,30.05,SW,236,8.0,10.0,80,0.00,,OVC070,0.00,VWS V14.01,2013-02-23 06:07:00,
2013-02-23 01:13:00,32.8,27.0,30.05,SW,226,6.0,10.0,79,0.00,,OVC070,0.00,VWS V14.01,2013-02-23 06:13:00,
2013-02-23 01:18:00,32.8,27.0,30.04,WSW,248,4.0,10.0,79,0.00,,OVC070,0.00,VWS V14.01,2013-02-23 06:18:00,
2013-02-23 01:24:00,32.8,27.3,30.05,SW,217,11.0,14.0,80,0.00,,OVC070,0.00,VWS V14.01,2013-02-23 06:24:00,
2013-02-23 01:29:00,32.9,27.1,30.04,SW,217,6.0,14.0,79,0.00,,OVC070,0.00,VWS V14.01,2013-02-23 06:29:00,
2013-02-23 01:30:00,32.3,27.4,30.03,SW,225,5.0,12.0,82,0.00,,OVC,0.00,VWS V14.01,2013-02-23 06:30:00,
2013-02-23 01:34:00,32.9,27.1,30.04,SW,222,10.0,11.0,79,0.00,,OVC055,0.00,VWS V14.01,2013-02-23 06:34:00,
2013-02-23 01:39:00,32.8,27.6,30.05,WSW,245,11.0,14.0,81,0.00,,OVC055,0.00,VWS V14.01,2013-02-23 06:39:00,
2013-02-23 01:44:00,32.7,27.5,30.05,SW,232,6.0,14.0,81,0.00,,OVC055,0.00,VWS V14.01,2013-02-23 06:44:00,
2013-02-23 01:49:00,32.6,27.4,30.05,WSW,238,9.0,14.0,81,0.00,,OVC055,0.00,VWS V14.01,2013-02-23 06:49:00,
2013-02-23 01:54:00,32.5,27.3,30.04,SSW,208,6.0,15.0,81,0.00,,OVC055,0.00,VWS V14.01,2013-02-23 06:54:00,
2013-02-23 01:59:00,32.4,27.8,30.04,SW,236,8.0,15.0,83,0.00,,OVC055,0.00,VWS V14.01,2013-02-23 06:59:00,
2013-02-23 02:00:00,32.4,27.5,30.02,WSW,238,5.0,9.0,82,0.00,,OVC,0.00,VWS V14.01,2013-02-23 07:00:00,
2013-02-23 02:04:00,32.4,28.1,30.04,SW,218,5.0,8.0,84,0.00,,OVC055,0.00,VWS V14.01,2013-02-23 07:04:00,
2013-02-23 02:10:00,32.3,28.0,30.05,SW,224,5.0,9.0,84,0.00,,OVC055,0.00,VWS V14.01,2013-02-23 07:10:00,
2013-02-23 02:15:00,32.3,27.7,30.04,SW,232,4.0,12.0,83,0.00,,OVC055,0.00,VWS V14.01,2013-02-23 07:15:00,
2013-02-23 02:20:00,32.4,27.8,30.03,SW,215,5.0,12.0,83,0.00,,OVC055,0.00,VWS V14.01,2013-02-23 07:20:00,
2013-02-23 02:25:00,32.3,27.4,30.03,WSW,238,7.0,12.0,82,0.00,,OVC055,0.00,VWS V14.01,2013-02-23 07:25:00,
2013-02-23 02:30:00,32.3,27.4,30.03,SW,221,4.0,12.0,82,0.00,,OVC055,0.00,VWS V14.01,2013-02-23 07:30:00,
2013-02-23 02:35:00,32.2,27.6,30.02,SW,229,5.0,7.0,83,0.00,,OVC070,0.00,VWS V14.01,2013-02-23 07:35:00,
2013-02-23 02:40:00,32.3,27.4,30.03,SSW,211,4.0,9.0,82,0.00,,OVC070,0.00,VWS V14.01,2013-02-23 07:40:00,
2013-02-23 02:45:00,32.3,27.4,30.02,SW,221,5.0,9.0,82,0.00,,OVC070,0.00,VWS V14.01,2013-02-23 07:45:00,
2013-02-23 02:50:00,32.4,27.5,30.03,SW,228,7.0,9.0,82,0.00,,OVC070,0.00,VWS V14.01,2013-02-23 07:50:00,
2013-02-23 02:55:00,32.3,27.4,30.03,WSW,250,5.0,9.0,82,0.00,,OVC070,0.00,VWS V14.01,2013-02-23 07:55:00,
2013-02-23 03:00:00,32.4,27.5,30.02,SW,229,4.0,9.0,82,0.00,,OVC070,0.00,VWS V14.01,2013-02-23 08:00:00,
2013-02-23 03:06:00,32.4,27.8,30.02,SW,233,4.0,5.0,83,0.00,,OVC070,0.00,VWS V14.01,2013-02-23 08:06:00,
2013-02-23 03:11:00,32.3,27.7,30.01,SW,215,3.0,5.0,83,0.00,,OVC070,0.00,VWS V14.01,2013-02-23 08:11:00,
2013-02-23 03:16:00,32.3,27.4,30.02,SW,226,4.0,5.0,82,0.00,,OVC070,0.00,VWS V14.01,2013-02-23 08:16:00,
2013-02-23 03:21:00,32.4,27.8,30.02,WSW,256,3.0,6.0,83,0.00,,OVC070,0.00,VWS V14.01,2013-02-23 08:21:00,
2013-02-23 03:26:00,32.4,27.8,30.02,WSW,239,3.0,6.0,83,0.00,,OVC070,0.00,VWS V14.01,2013-02-23 08:26:00,
2013-02-23 03:30:00,32.8,27.9,30.01,SSW,205,1.0,8.0,82,0.00,,OVC,0.00,VWS V14.01,2013-02-23 08:30:00,
2013-02-23 03:31:00,32.5,27.6,30.02,SW,229,5.0,6.0,82,0.00,,OVC070,0.00,VWS V14.01,2013-02-23 08:31:00,
2013-02-23 03:36:00,32.5,27.6,30.01,SSW,200,1.0,5.0,82,0.00,,OVC075,0.00,VWS V14.01,2013-02-23 08:36:00,
2013-02-23 03:41:00,32.6,27.7,30.01,WSW,242,10.0,10.0,82,0.00,,OVC075,0.00,VWS V14.01,2013-02-23 08:41:00,
2013-02-23 03:46:00,32.7,27.8,30.01,SW,217,5.0,10.0,82,0.00,,OVC075,0.00,VWS V14.01,2013-02-23 08:46:00,
2013-02-23 03:52:00,32.7,27.8,30.00,SW,221,7.0,11.0,82,0.00,,OVC075,0.00,VWS V14.01,2013-02-23 08:52:00,
2013-02-23 03:57:00,32.7,28.1,30.00,SW,228,6.0,11.0,83,0.00,,OVC075,0.00,VWS V14.01,2013-02-23 08:57:00,
2013-02-23 04:00:00,32.9,28.3,29.99,South,169,1.0,10.0,83,0.00,,OVC,0.00,VWS V14.01,2013-02-23 09:00:00,
2013-02-23 04:02:00,32.7,28.1,30.00,SSW,205,2.0,11.0,83,0.00,,OVC075,0.00,VWS V14.01,2013-02-23 09:02:00,
2013-02-23 04:07:00,32.7,27.8,30.01,SSW,208,4.0,8.0,82,0.00,,OVC075,0.00,VWS V14.01,2013-02-23 09:07:00,
2013-02-23 04:12:00,32.7,27.8,30.01,SW,216,4.0,8.0,82,0.00,,OVC075,0.00,VWS V14.01,2013-02-23 09:12:00,
2013-02-23 04:17:00,32.8,27.9,30.00,SSW,209,2.0,8.0,82,0.00,,OVC075,0.00,VWS V14.01,2013-02-23 09:17:00,
2013-02-23 04:22:00,32.8,27.9,30.01,SW,225,3.0,8.0,82,0.00,,OVC075,0.00,VWS V14.01,2013-02-23 09:22:00,
2013-02-23 04:27:00,32.8,27.9,30.01,SE,142,1.0,8.0,82,0.00,,OVC075,0.00,VWS V14.01,2013-02-23 09:27:00,
2013-02-23 04:30:00,32.8,28.5,29.98,WSW,238,5.0,10.0,84,0.00,,OVC,0.00,VWS V14.01,2013-02-23 09:30:00,
2013-02-23 04:32:00,32.8,27.9,30.01,SSW,205,1.0,8.0,82,0.00,,OVC075,0.00,VWS V14.01,2013-02-23 09:32:00,
2013-02-23 04:38:00,32.8,27.9,30.01,SSW,197,2.0,3.0,82,0.00,,OVC075,0.00,VWS V14.01,2013-02-23 09:38:00,
2013-02-23 04:43:00,32.8,28.2,30.00,West,262,0.0,5.0,83,0.00,,OVC075,0.00,VWS V14.01,2013-02-23 09:43:00,
2013-02-23 04:48:00,32.8,28.2,30.00,SW,216,3.0,5.0,83,0.00,,OVC075,0.00,VWS V14.01,2013-02-23 09:48:00,
2013-02-23 04:53:00,32.9,28.0,30.00,South,190,4.0,10.0,82,0.00,,OVC075,0.00,VWS V14.01,2013-02-23 09:53:00,
2013-02-23 04:58:00,32.9,28.3,30.00,SW,214,2.0,10.0,83,0.00,,OVC075,0.00,VWS V14.01,2013-02-23 09:58:00,
2013-02-23 05:00:00,32.9,28.9,29.99,South,190,2.0,9.0,85,0.00,,OVC,0.00,VWS V14.01,2013-02-23 10:00:00,
2013-02-23 05:03:00,32.9,28.3,29.99,SSW,200,1.0,2.0,83,0.00,,OVC075,0.00,VWS V14.01,2013-02-23 10:03:00,
2013-02-23 05:08:00,32.8,28.5,29.99,SSW,200,3.0,5.0,84,0.00,,OVC075,0.00,VWS V14.01,2013-02-23 10:08:00,
2013-02-23 05:13:00,32.9,28.3,29.98,SSW,197,5.0,8.0,83,0.00,,OVC075,0.00,VWS V14.01,2013-02-23 10:13:00,
2013-02-23 05:19:00,32.8,28.5,29.99,SW,225,6.0,9.0,84,0.00,,OVC075,0.00,VWS V14.01,2013-02-23 10:19:00,
2013-02-23 05:24:00,32.8,28.5,29.99,SW,215,6.0,10.0,84,0.00,,OVC075,0.00,VWS V14.01,2013-02-23 10:24:00,
2013-02-23 05:29:00,32.8,28.5,29.98,SW,221,4.0,10.0,84,0.00,,OVC075,0.00,VWS V14.01,2013-02-23 10:29:00,
2013-02-23 05:30:00,33.1,29.1,29.98,SSW,208,4.0,9.0,85,0.00,,OVC,0.00,VWS V14.01,2013-02-23 10:30:00,
2013-02-23 05:34:00,32.8,28.8,29.99,SW,229,7.0,8.0,85,0.00,,OVC041,0.00,VWS V14.01,2013-02-23 10:34:00,
2013-02-23 05:39:00,32.8,28.8,29.99,SW,224,5.0,9.0,85,0.00,,OVC041,0.00,VWS V14.01,2013-02-23 10:39:00,
2013-02-23 05:44:00,32.8,28.8,29.99,SW,226,7.0,9.0,85,0.00,,OVC041,0.00,VWS V14.01,2013-02-23 10:44:00,
2013-02-23 05:49:00,32.9,28.9,29.98,SSW,208,3.0,9.0,85,0.00,,OVC041,0.00,VWS V14.01,2013-02-23 10:49:00,
2013-02-23 05:54:00,32.9,28.6,29.98,SSW,204,1.0,9.0,84,0.00,,OVC041,0.00,VWS V14.01,2013-02-23 10:54:00,
2013-02-23 06:00:00,32.9,28.9,29.99,SW,228,3.0,9.0,85,0.00,,OVC041,0.00,VWS V14.01,2013-02-23 11:00:00,
2013-02-23 06:05:00,32.9,28.9,29.99,WSW,246,3.0,4.0,85,0.00,,OVC080,0.00,VWS V14.01,2013-02-23 11:05:00,
2013-02-23 06:10:00,32.9,28.9,29.99,SW,218,3.0,5.0,85,0.00,,OVC080,0.00,VWS V14.01,2013-02-23 11:10:00,
2013-02-23 06:15:00,32.9,28.9,29.99,WSW,238,6.0,7.0,85,0.00,,OVC080,0.00,VWS V14.01,2013-02-23 11:15:00,
2013-02-23 06:20:00,33.1,29.1,29.99,SW,214,6.0,8.0,85,0.00,,OVC080,0.00,VWS V14.01,2013-02-23 11:20:00,
2013-02-23 06:25:00,33.1,29.1,29.99,SW,231,8.0,9.0,85,0.00,,OVC080,0.00,VWS V14.01,2013-02-23 11:25:00,
2013-02-23 06:30:00,33.1,29.1,29.98,SW,225,5.0,9.0,85,0.00,,OVC080,0.00,VWS V14.01,2013-02-23 11:30:00,
2013-02-23 06:35:00,33.1,29.1,29.98,SW,221,3.0,5.0,85,0.00,,OVC018,0.00,VWS V14.01,2013-02-23 11:35:00,
2013-02-23 06:41:00,33.1,29.1,29.98,SW,226,5.0,8.0,85,0.00,,OVC018,0.00,VWS V14.01,2013-02-23 11:41:00,
2013-02-23 06:46:00,33.1,29.1,29.98,SW,222,3.0,10.0,85,0.00,,OVC018,0.00,VWS V14.01,2013-02-23 11:46:00,
2013-02-23 06:51:00,33.1,29.4,29.98,SW,232,5.0,10.0,86,0.00,,OVC018,0.00,VWS V14.01,2013-02-23 11:51:00,
2013-02-23 06:56:00,33.1,29.4,29.98,SW,236,5.0,10.0,86,0.00,,OVC018,0.00,VWS V14.01,2013-02-23 11:56:00,
2013-02-23 07:00:00,33.4,30.0,29.98,South,188,1.0,6.0,87,0.00,,OVC,0.00,VWS V14.01,2013-02-23 12:00:00,
2013-02-23 07:01:00,33.2,29.5,29.98,SW,225,4.0,10.0,86,0.00,,OVC018,0.00,VWS V14.01,2013-02-23 12:01:00,
2013-02-23 07:06:00,33.2,29.5,29.98,SW,233,5.0,6.0,86,0.00,,OVC018,0.00,VWS V14.01,2013-02-23 12:06:00,
2013-02-23 07:11:00,33.3,29.6,29.98,SW,226,5.0,8.0,86,0.00,,OVC018,0.00,VWS V14.01,2013-02-23 12:11:00,
2013-02-23 07:16:00,33.3,29.6,29.99,SW,229,8.0,9.0,86,0.00,,OVC018,0.00,VWS V14.01,2013-02-23 12:16:00,
2013-02-23 07:21:00,33.3,29.6,29.99,SW,228,5.0,9.0,86,0.00,,OVC018,0.00,VWS V14.01,2013-02-23 12:21:00,
2013-02-23 07:27:00,33.3,29.6,29.99,SSW,205,2.0,9.0,86,0.00,,OVC018,0.00,VWS V14.01,2013-02-23 12:27:00,
2013-02-23 07:30:00,33.9,30.5,29.97,WSW,252,5.0,6.0,87,0.00,,OVC,0.00,VWS V14.01,2013-02-23 12:30:00,
2013-02-23 07:32:00,33.3,29.6,29.99,SSW,200,4.0,9.0,86,0.00,,OVC016,0.00,VWS V14.01,2013-02-23 12:32:00,
2013-02-23 07:37:00,33.3,29.6,29.99,SW,224,4.0,6.0,86,0.00,,OVC016,0.00,VWS V14.01,2013-02-23 12:37:00,
2013-02-23 07:45:00,33.3,29.6,29.99,SSW,203,0.0,6.0,86,0.00,,OVC016,0.00,VWS V14.01,2013-02-23 12:45:00,
2013-02-23 07:51:00,33.3,29.6,29.99,SW,217,3.0,6.0,86,0.00,,OVC016,0.00,VWS V14.01,2013-02-23 12:51:00,
2013-02-23 07:56:00,33.3,29.9,29.98,SSW,210,2.0,6.0,87,0.00,,OVC016,0.00,VWS V14.01,2013-02-23 12:56:00,
2013-02-23 08:00:00,34.3,30.8,29.97,WSW,248,4.0,8.0,87,0.00,,OVC,0.00,VWS V14.01,2013-02-23 13:00:00,
2013-02-23 08:01:00,33.4,30.0,29.98,SSW,200,0.0,6.0,87,0.00,,OVC016,0.00,VWS V14.01,2013-02-23 13:01:00,
2013-02-23 08:06:00,33.4,30.0,29.98,SSW,200,1.0,2.0,87,0.00,,OVC014,0.00,VWS V14.01,2013-02-23 13:06:00,
2013-02-23 08:11:00,33.5,30.0,29.98,SW,228,5.0,5.0,87,0.00,,OVC014,0.00,VWS V14.01,2013-02-23 13:11:00,
2013-02-23 08:16:00,33.6,30.1,29.98,South,190,1.0,5.0,87,0.00,,OVC014,0.00,VWS V14.01,2013-02-23 13:16:00,
2013-02-23 08:21:00,33.7,30.2,29.97,WSW,239,5.0,5.0,87,0.00,,OVC014,0.00,VWS V14.01,2013-02-23 13:21:00,
2013-02-23 08:27:00,33.8,30.4,29.98,SW,225,3.0,5.0,87,0.00,,OVC014,0.00,VWS V14.01,2013-02-23 13:27:00,
2013-02-23 08:30:00,34.6,31.1,29.96,WSW,252,5.0,10.0,87,0.00,,OVC,0.00,VWS V14.01,2013-02-23 13:30:00,
2013-02-23 08:32:00,33.9,30.5,29.97,SW,222,4.0,5.0,87,0.00,,OVC014,0.00,VWS V14.01,2013-02-23 13:32:00,
2013-02-23 08:37:00,34.0,30.5,29.97,West,264,3.0,8.0,87,0.00,,OVC014,0.00,VWS V14.01,2013-02-23 13:37:00,
2013-02-23 08:42:00,34.1,30.4,29.97,South,186,2.0,8.0,86,0.00,,OVC014,0.00,VWS V14.01,2013-02-23 13:42:00,
2013-02-23 08:47:00,34.1,30.6,29.97,SW,217,2.0,8.0,87,0.00,,OVC014,0.00,VWS V14.01,2013-02-23 13:47:00,
2013-02-23 08:52:00,34.1,30.6,29.97,SSE,150,0.0,8.0,87,0.00,,OVC014,0.00,VWS V14.01,2013-02-23 13:52:00,
2013-02-23 08:58:00,34.2,30.7,29.97,SW,221,3.0,8.0,87,0.00,,OVC014,0.00,VWS V14.01,2013-02-23 13:58:00,
2013-02-23 09:00:00,34.7,31.2,29.97,WSW,251,1.0,7.0,87,0.00,,OVC,0.00,VWS V14.01,2013-02-23 14:00:00,
2013-02-23 09:03:00,34.3,30.6,29.97,WSW,252,4.0,4.0,86,0.00,,OVC014,0.00,VWS V14.01,2013-02-23 14:03:00,
2013-02-23 09:08:00,34.3,30.8,29.97,SW,226,4.0,6.0,87,0.00,,OVC014,0.00,VWS V14.01,2013-02-23 14:08:00,
2013-02-23 09:13:00,34.4,30.9,29.96,SW,232,6.0,7.0,87,0.00,,OVC014,0.00,VWS V14.01,2013-02-23 14:13:00,
2013-02-23 09:18:00,34.5,31.0,29.96,WSW,238,8.0,10.0,87,0.00,,OVC014,0.00,VWS V14.01,2013-02-23 14:18:00,
2013-02-23 09:23:00,34.6,30.9,29.96,SW,219,4.0,10.0,86,0.00,,OVC014,0.00,VWS V14.01,2013-02-23 14:23:00,
2013-02-23 09:28:00,34.6,31.1,29.96,WSW,243,4.0,10.0,87,0.00,,OVC014,0.00,VWS V14.01,2013-02-23 14:28:00,
2013-02-23 09:30:00,34.4,31.8,29.95,SW,224,1.0,3.0,90,0.00,,OVC,0.00,VWS V14.01,2013-02-23 14:30:00,
2013-02-23 09:33:00,34.6,30.9,29.96,SW,226,5.0,7.0,86,0.00,,OVC014,0.00,VWS V14.01,2013-02-23 14:33:00,
2013-02-23 09:38:00,34.6,31.1,29.95,SW,226,5.0,7.0,87,0.00,,OVC014,0.00,VWS V14.01,2013-02-23 14:38:00,
2013-02-23 09:44:00,34.7,31.0,29.96,WSW,250,2.0,7.0,86,0.00,,OVC014,0.00,VWS V14.01,2013-02-23 14:44:00,
2013-02-23 09:49:00,34.7,31.2,29.96,SW,236,2.0,7.0,87,0.00,,OVC014,0.00,VWS V14.01,2013-02-23 14:49:00,
2013-02-23 09:54:00,34.7,31.2,29.96,WNW,289,0.0,7.0,87,0.00,,OVC014,0.00,VWS V14.01,2013-02-23 14:54:00,
2013-02-23 09:59:00,34.7,31.2,29.97,West,262,1.0,7.0,87,0.00,,OVC014,0.00,VWS V14.01,2013-02-23 14:59:00,
2013-02-23 10:00:00,35.2,32.0,29.95,SW,232,2.0,6.0,88,0.00,,OVC,0.00,VWS V14.01,2013-02-23 15:00:00,
2013-02-23 10:04:00,34.6,31.1,29.97,WSW,257,2.0,3.0,87,0.00,,OVC060,0.00,VWS V14.01,2013-02-23 15:04:00,
2013-02-23 10:09:00,34.6,31.1,29.97,WSW,257,1.0,3.0,87,0.00,,OVC060,0.00,VWS V14.01,2013-02-23 15:09:00,
2013-02-23 10:14:00,34.6,31.1,29.96,SW,232,1.0,3.0,87,0.00,,OVC060,0.00,VWS V14.01,2013-02-23 15:14:00,
2013-02-23 10:20:00,34.5,31.3,29.96,WSW,238,3.0,3.0,88,0.00,,OVC060,0.00,VWS V14.01,2013-02-23 15:20:00,
2013-02-23 10:25:00,34.4,31.5,29.95,SSW,211,1.0,3.0,89,0.00,,OVC060,0.00,VWS V14.01,2013-02-23 15:25:00,
2013-02-23 10:30:00,34.3,31.7,29.95,SW,235,3.0,3.0,90,0.00,,OVC060,0.00,VWS V14.01,2013-02-23 15:30:00,
2013-02-23 10:35:00,34.4,31.8,29.95,SW,219,1.0,2.0,90,0.00,,OVC060,0.00,VWS V14.01,2013-02-23 15:35:00,
2013-02-23 10:40:00,34.5,31.9,29.95,SW,222,2.0,3.0,90,0.00,,OVC060,0.00,VWS V14.01,2013-02-23 15:40:00,
2013-02-23 10:45:00,34.5,31.9,29.95,SW,226,3.0,3.0,90,0.00,,OVC060,0.00,VWS V14.01,2013-02-23 15:45:00,
2013-02-23 10:50:00,34.6,32.0,29.95,SW,225,1.0,3.0,90,0.00,,OVC060,0.00,VWS V14.01,2013-02-23 15:50:00,
2013-02-23 10:55:00,34.9,32.3,29.95,SW,232,3.0,6.0,90,0.00,,OVC060,0.00,VWS V14.01,2013-02-23 15:55:00,
2013-02-23 11:00:00,35.2,32.0,29.95,SW,221,3.0,6.0,88,0.00,,OVC060,0.00,VWS V14.01,2013-02-23 16:00:00,
2013-02-23 11:06:00,35.4,32.2,29.94,SW,220,3.0,4.0,88,0.00,,OVC060,0.00,VWS V14.01,2013-02-23 16:06:00,
2013-02-23 11:11:00,35.5,32.3,29.94,SW,230,4.0,4.0,88,0.00,,OVC060,0.00,VWS V14.01,2013-02-23 16:11:00,
2013-02-23 11:16:00,35.6,32.1,29.94,SW,226,6.0,6.0,87,0.00,,OVC060,0.00,VWS V14.01,2013-02-23 16:16:00,
2013-02-23 11:21:00,35.7,32.2,29.94,WSW,243,5.0,7.0,87,0.00,,OVC060,0.00,VWS V14.01,2013-02-23 16:21:00,
2013-02-23 11:26:00,35.8,32.3,29.95,WSW,248,4.0,7.0,87,0.00,,OVC060,0.00,VWS V14.01,2013-02-23 16:26:00,
2013-02-23 11:30:00,36.5,32.7,29.93,SW,226,1.0,3.0,86,0.00,,OVC,0.00,VWS V14.01,2013-02-23 16:30:00,
2013-02-23 11:31:00,35.8,32.3,29.95,WSW,257,2.0,7.0,87,0.00,,OVC060,0.00,VWS V14.01,2013-02-23 16:31:00,
2013-02-23 11:36:00,35.9,32.4,29.95,WSW,257,2.0,4.0,87,0.00,,OVC060,0.00,VWS V14.01,2013-02-23 16:36:00,
2013-02-23 11:42:00,35.8,32.3,29.95,WSW,245,3.0,4.0,87,0.00,,OVC060,0.00,VWS V14.01,2013-02-23 16:42:00,
2013-02-23 11:47:00,35.9,32.4,29.94,WSW,248,3.0,4.0,87,0.00,,OVC014,0.00,VWS V14.01,2013-02-23 16:47:00,
2013-02-23 11:52:00,35.9,32.4,29.94,WSW,248,3.0,5.0,87,0.00,,OVC014,0.00,VWS V14.01,2013-02-23 16:52:00,
2013-02-23 11:57:00,36.0,32.5,29.94,WSW,257,2.0,5.0,87,0.00,,OVC014,0.00,VWS V14.01,2013-02-23 16:57:00,
2013-02-23 12:00:00,36.7,33.2,29.92,SW,225,4.0,6.0,87,0.00,,OVC,0.00,VWS V14.01,2013-02-23 17:00:00,
2013-02-23 12:02:00,36.1,32.6,29.94,WSW,245,1.0,5.0,87,0.00,,OVC014,0.00,VWS V14.01,2013-02-23 17:02:00,
2013-02-23 12:07:00,36.2,32.7,29.94,WSW,249,2.0,3.0,87,0.00,,OVC014,0.00,VWS V14.01,2013-02-23 17:07:00,
2013-02-23 12:12:00,36.2,32.4,29.94,WSW,245,2.0,3.0,86,0.00,,OVC014,0.00,VWS V14.01,2013-02-23 17:12:00,
2013-02-23 12:17:00,36.3,32.5,29.94,West,262,1.0,3.0,86,0.00,,OVC014,0.00,VWS V14.01,2013-02-23 17:17:00,
2013-02-23 12:22:00,36.4,32.6,29.93,WSW,245,1.0,3.0,86,0.00,,OVC014,0.00,VWS V14.01,2013-02-23 17:22:00,
2013-02-23 12:28:00,36.4,32.6,29.93,WSW,248,1.0,3.0,86,0.00,,OVC014,0.00,VWS V14.01,2013-02-23 17:28:00,
2013-02-23 12:30:00,37.2,33.7,29.91,WSW,245,6.0,9.0,87,0.01,,OVC,0.01,VWS V14.01,2013-02-23 17:30:00,
2013-02-23 12:33:00,36.5,32.7,29.93,SW,232,1.0,1.0,86,0.00,,OVC014,0.00,VWS V14.01,2013-02-23 17:33:00,
2013-02-23 12:38:00,36.6,32.8,29.93,WSW,239,3.0,4.0,86,0.00,,OVC014,0.00,VWS V14.01,2013-02-23 17:38:00,
2013-02-23 12:43:00,36.7,33.2,29.93,SW,218,3.0,5.0,87,0.00,,OVC014,0.00,VWS V14.01,2013-02-23 17:43:00,
2013-02-23 12:48:00,36.7,32.9,29.93,WSW,239,3.0,5.0,86,0.00,,OVC012,0.00,VWS V14.01,2013-02-23 17:48:00,
2013-02-23 12:53:00,36.8,33.3,29.93,SW,224,4.0,6.0,87,0.00,,OVC012,0.00,VWS V14.01,2013-02-23 17:53:00,
2013-02-23 12:58:00,36.7,33.2,29.92,SW,225,4.0,6.0,87,0.00,,OVC012,0.00,VWS V14.01,2013-02-23 17:58:00,
2013-02-23 13:00:00,37.3,33.8,29.90,SW,236,4.0,7.0,87,0.01,,OVC,0.01,VWS V14.01,2013-02-23 18:00:00,
2013-02-23 13:03:00,36.7,33.2,29.92,SW,221,3.0,6.0,87,0.00,,OVC012,0.00,VWS V14.01,2013-02-23 18:03:00,
2013-02-23 13:08:00,36.9,33.4,29.92,SW,229,5.0,6.0,87,0.00,,OVC012,0.00,VWS V14.01,2013-02-23 18:08:00,
2013-02-23 13:14:00,37.0,33.5,29.92,SW,236,4.0,9.0,87,0.00,,OVC012,0.00,VWS V14.01,2013-02-23 18:14:00,
2013-02-23 13:19:00,37.1,33.6,29.91,SSW,209,3.0,9.0,87,0.00,,OVC012,0.00,VWS V14.01,2013-02-23 18:19:00,
2013-02-23 13:24:00,37.0,33.5,29.91,SW,226,4.0,9.0,87,0.00,,OVC012,0.00,VWS V14.01,2013-02-23 18:24:00,
2013-02-23 13:29:00,37.1,33.6,29.91,SW,235,6.0,9.0,87,0.01,,OVC012,0.01,VWS V14.01,2013-02-23 18:29:00,
2013-02-23 13:30:00,37.5,34.0,29.89,SW,225,3.0,5.0,87,0.02,,OVC,0.02,VWS V14.01,2013-02-23 18:30:00,
2013-02-23 13:34:00,37.1,33.6,29.91,WSW,241,3.0,6.0,87,0.01,,OVC012,0.01,VWS V14.01,2013-02-23 18:34:00,
2013-02-23 13:39:00,37.1,33.6,29.91,SW,231,7.0,7.0,87,0.01,,OVC012,0.01,VWS V14.01,2013-02-23 18:39:00,
2013-02-23 13:44:00,36.9,33.4,29.91,WSW,245,6.0,7.0,87,0.01,,OVC012,0.01,VWS V14.01,2013-02-23 18:44:00,
2013-02-23 13:49:00,37.0,33.5,29.90,WSW,242,3.0,7.0,87,0.01,,OVC014,0.01,VWS V14.01,2013-02-23 18:49:00,
2013-02-23 13:54:00,37.1,33.6,29.90,SW,225,2.0,7.0,87,0.01,,OVC014,0.01,VWS V14.01,2013-02-23 18:54:00,
2013-02-23 13:59:00,37.2,33.7,29.90,WSW,238,4.0,7.0,87,0.01,,OVC014,0.01,VWS V14.01,2013-02-23 18:59:00,
2013-02-23 14:00:00,38.4,34.6,29.88,SW,232,3.0,5.0,86,0.01,,OVC,0.02,VWS V14.01,2013-02-23 19:00:00,
2013-02-23 14:05:00,37.2,33.7,29.90,SW,224,2.0,5.0,87,0.01,,OVC014,0.01,VWS V14.01,2013-02-23 19:05:00,
2013-02-23 14:10:00,37.3,33.8,29.90,SW,224,2.0,5.0,87,0.01,,OVC014,0.01,VWS V14.01,2013-02-23 19:10:00,
2013-02-23 14:15:00,37.3,33.8,29.90,SW,233,2.0,5.0,87,0.01,,OVC014,0.01,VWS V14.01,2013-02-23 19:15:00,
2013-02-23 14:20:00,37.4,33.9,29.90,WSW,250,2.0,5.0,87,0.02,,OVC014,0.02,VWS V14.01,2013-02-23 19:20:00,
2013-02-23 14:25:00,37.4,33.9,29.90,WSW,249,2.0,5.0,87,0.02,,OVC014,0.02,VWS V14.01,2013-02-23 19:25:00,
2013-02-23 14:30:00,37.5,34.0,29.89,WSW,256,1.0,5.0,87,0.02,,OVC014,0.02,VWS V14.01,2013-02-23 19:30:00,
2013-02-23 14:35:00,37.6,34.1,29.89,SW,226,2.0,4.0,87,0.01,,OVC014,0.02,VWS V14.01,2013-02-23 19:35:00,
2013-02-23 14:41:00,37.8,34.3,29.89,SW,228,2.0,4.0,87,0.01,,OVC014,0.02,VWS V14.01,2013-02-23 19:41:00,
2013-02-23 14:46:00,37.9,34.4,29.89,SW,221,1.0,4.0,87,0.01,,OVC014,0.02,VWS V14.01,2013-02-23 19:46:00,
2013-02-23 14:51:00,38.0,34.5,29.89,SW,224,1.0,4.0,87,0.01,,OVC014,0.02,VWS V14.01,2013-02-23 19:51:00,
2013-02-23 14:56:00,38.2,34.7,29.88,SW,231,4.0,5.0,87,0.01,,OVC014,0.02,VWS V14.01,2013-02-23 19:56:00,
2013-02-23 15:00:00,38.2,34.7,29.88,SSW,200,0.0,5.0,87,0.01,,OVC,0.03,VWS V14.01,2013-02-23 20:00:00,
2013-02-23 15:01:00,38.4,34.6,29.88,SW,219,2.0,5.0,86,0.01,,OVC014,0.02,VWS V14.01,2013-02-23 20:01:00,
2013-02-23 15:06:00,38.4,34.3,29.88,SSW,205,1.0,5.0,85,0.01,,OVC014,0.02,VWS V14.01,2013-02-23 20:06:00,
2013-02-23 15:11:00,38.3,34.2,29.88,SSW,202,0.0,5.0,85,0.01,,OVC014,0.02,VWS V14.01,2013-02-23 20:11:00,
2013-02-23 15:16:00,38.3,34.5,29.88,SSW,205,0.0,5.0,86,0.01,,OVC014,0.02,VWS V14.01,2013-02-23 20:16:00,
2013-02-23 15:21:00,38.3,34.5,29.88,SSW,211,1.0,5.0,86,0.01,,OVC014,0.02,VWS V14.01,2013-02-23 20:21:00,
2013-02-23 15:26:00,38.3,34.5,29.88,South,183,2.0,5.0,86,0.02,,OVC014,0.03,VWS V14.01,2013-02-23 20:26:00,
2013-02-23 15:30:00,38.0,34.5,29.87,SW,221,1.0,3.0,87,0.01,,OVC,0.03,VWS V14.01,2013-02-23 20:30:00,
2013-02-23 15:32:00,38.2,34.4,29.88,SW,218,3.0,5.0,86,0.02,,OVC014,0.03,VWS V14.01,2013-02-23 20:32:00,
2013-02-23 15:37:00,38.1,34.3,29.88,SSW,205,3.0,3.0,86,0.01,,OVC014,0.03,VWS V14.01,2013-02-23 20:37:00,
2013-02-23 15:42:00,38.1,34.3,29.88,SW,224,2.0,3.0,86,0.01,,OVC014,0.03,VWS V14.01,2013-02-23 20:42:00,
2013-02-23 15:47:00,38.1,34.3,29.88,South,191,1.0,5.0,86,0.01,,OVC014,0.03,VWS V14.01,2013-02-23 20:47:00,
2013-02-23 15:52:00,38.1,34.6,29.88,SSW,197,1.0,5.0,87,0.01,,OVC014,0.03,VWS V14.01,2013-02-23 20:52:00,
2013-02-23 15:57:00,38.1,34.6,29.88,SSW,211,1.0,5.0,87,0.01,,OVC014,0.03,VWS V14.01,2013-02-23 20:57:00,
2013-02-23 16:00:00,37.8,34.3,29.88,SW,236,0.0,1.0,87,0.00,,OVC,0.03,VWS V14.01,2013-02-23 21:00:00,
2013-02-23 16:02:00,38.2,34.7,29.87,SSW,200,0.0,5.0,87,0.01,,OVC014,0.03,VWS V14.01,2013-02-23 21:02:00,
2013-02-23 16:07:00,38.2,34.4,29.87,SSW,203,1.0,2.0,86,0.01,,OVC014,0.03,VWS V14.01,2013-02-23 21:07:00,
2013-02-23 16:13:00,38.2,34.4,29.87,SSW,209,2.0,2.0,86,0.01,,OVC014,0.03,VWS V14.01,2013-02-23 21:13:00,
2013-02-23 16:18:00,38.2,34.7,29.87,SSW,209,1.0,3.0,87,0.01,,OVC014,0.03,VWS V14.01,2013-02-23 21:18:00,
2013-02-23 16:23:00,38.1,34.3,29.87,SSW,200,1.0,3.0,86,0.01,,OVC014,0.03,VWS V14.01,2013-02-23 21:23:00,
2013-02-23 16:28:00,38.1,34.3,29.87,SW,226,2.0,3.0,86,0.01,,OVC014,0.03,VWS V14.01,2013-02-23 21:28:00,
2013-02-23 16:30:00,36.9,33.7,29.88,SW,236,0.0,0.0,88,0.00,,OVC,0.03,VWS V14.01,2013-02-23 21:30:00,
2013-02-23 16:33:00,38.0,34.5,29.87,SW,219,0.0,1.0,87,0.00,,OVC014,0.03,VWS V14.01,2013-02-23 21:33:00,
2013-02-23 16:38:00,38.0,34.5,29.87,SW,219,0.0,1.0,87,0.00,,OVC014,0.03,VWS V14.01,2013-02-23 21:38:00,
2013-02-23 16:43:00,37.9,34.4,29.87,WSW,238,0.0,1.0,87,0.00,,OVC014,0.03,VWS V14.01,2013-02-23 21:43:00,
2013-02-23 16:48:00,37.9,34.4,29.87,SW,233,0.0,1.0,87,0.00,,OVC014,0.03,VWS V14.01,2013-02-23 21:48:00,
2013-02-23 16:54:00,37.8,34.3,29.87,SW,236,0.0,1.0,87,0.00,,OVC014,0.03,VWS V14.01,2013-02-23 21:54:00,
2013-02-23 16:59:00,37.8,34.3,29.88,SW,236,0.0,1.0,87,0.00,,OVC014,0.03,VWS V14.01,2013-02-23 21:59:00,
2013-02-23 17:00:00,36.2,33.3,29.87,SW,236,0.0,0.0,89,0.00,,OVC,0.03,VWS V14.01,2013-02-23 22:00:00,
2013-02-23 17:04:00,37.8,34.3,29.88,SW,236,0.0,0.0,87,0.00,,OVC014,0.03,VWS V14.01,2013-02-23 22:04:00,
2013-02-23 17:09:00,37.7,34.2,29.88,SW,236,0.0,0.0,87,0.00,,OVC014,0.03,VWS V14.01,2013-02-23 22:09:00,
2013-02-23 17:14:00,37.4,33.9,29.88,SW,236,0.0,0.0,87,0.00,,OVC014,0.03,VWS V14.01,2013-02-23 22:14:00,
2013-02-23 17:19:00,37.2,33.7,29.88,SW,236,0.0,0.0,87,0.00,,OVC014,0.03,VWS V14.01,2013-02-23 22:19:00,
2013-02-23 17:24:00,37.1,33.9,29.88,SW,236,0.0,0.0,88,0.00,,OVC014,0.03,VWS V14.01,2013-02-23 22:24:00,
2013-02-23 17:30:00,36.9,33.7,29.88,SW,236,0.0,0.0,88,0.00,,OVC014,0.03,VWS V14.01,2013-02-23 22:30:00,
2013-02-23 17:35:00,36.8,33.6,29.88,SW,236,0.0,0.0,88,0.00,,OVC014,0.03,VWS V14.01,2013-02-23 22:35:00,
2013-02-23 17:40:00,36.7,33.5,29.87,SW,236,0.0,0.0,88,0.00,,OVC014,0.03,VWS V14.01,2013-02-23 22:40:00,
2013-02-23 17:45:00,36.5,33.6,29.87,SW,236,0.0,0.0,89,0.00,,OVC016,0.03,VWS V14.01,2013-02-23 22:45:00,
2013-02-23 17:50:00,36.4,33.5,29.87,SW,236,0.0,0.0,89,0.00,,OVC016,0.03,VWS V14.01,2013-02-23 22:50:00,
2013-02-23 17:55:00,36.3,33.4,29.87,SW,236,0.0,0.0,89,0.00,,OVC016,0.03,VWS V14.01,2013-02-23 22:55:00,
2013-02-23 18:00:00,36.2,33.3,29.87,SW,236,0.0,0.0,89,0.00,,OVC016,0.03,VWS V14.01,2013-02-23 23:00:00,
2013-02-23 18:05:00,36.1,33.5,29.87,SW,236,0.0,0.0,90,0.00,,OVC016,0.03,VWS V14.01,2013-02-23 23:05:00,
2013-02-23 18:11:00,36.1,33.5,29.87,SW,236,0.0,0.0,90,0.00,,OVC016,0.03,VWS V14.01,2013-02-23 23:11:00,
2013-02-23 18:16:00,36.0,33.4,29.87,SW,236,0.0,0.0,90,0.00,,OVC016,0.03,VWS V14.01,2013-02-23 23:16:00,
2013-02-23 18:21:00,36.0,33.4,29.87,SW,236,0.0,0.0,90,0.00,,OVC016,0.03,VWS V14.01,2013-02-23 23:21:00,
2013-02-23 18:26:00,35.9,33.3,29.88,SW,236,0.0,0.0,90,0.00,,OVC016,0.03,VWS V14.01,2013-02-23 23:26:00,
2013-02-23 18:30:00,34.9,32.0,29.90,NNW,340,3.0,6.0,89,0.00,,OVC,0.03,VWS V14.01,2013-02-23 23:30:00,
2013-02-23 18:31:00,35.9,33.3,29.88,SW,236,0.0,0.0,90,0.00,,OVC016,0.03,VWS V14.01,2013-02-23 23:31:00,
2013-02-23 18:36:00,35.9,33.3,29.88,SW,236,0.0,0.0,90,0.00,,OVC016,0.03,VWS V14.01,2013-02-23 23:36:00,
2013-02-23 18:41:00,35.8,33.2,29.88,SW,236,0.0,0.0,90,0.00,,OVC016,0.03,VWS V14.01,2013-02-23 23:41:00,
2013-02-23 18:47:00,35.8,33.4,29.88,SW,236,0.0,0.0,91,0.00,,OVC045,0.03,VWS V14.01,2013-02-23 23:47:00,
2013-02-23 18:52:00,35.7,33.3,29.88,SW,236,0.0,0.0,91,0.00,,OVC045,0.03,VWS V14.01,2013-02-23 23:52:00,
2013-02-23 18:57:00,35.7,33.3,29.88,SW,236,0.0,0.0,91,0.00,,OVC045,0.03,VWS V14.01,2013-02-23 23:57:00,
2013-02-23 19:00:00,33.5,30.9,29.89,NNW,341,2.0,6.0,90,0.00,,OVC,0.03,VWS V14.01,2013-02-24 00:00:00,
2013-02-23 19:02:00,35.7,33.3,29.89,West,265,0.0,0.0,91,0.00,,OVC045,0.03,VWS V14.01,2013-02-24 00:02:00,
2013-02-23 19:07:00,35.7,33.3,29.88,NNW,340,0.0,0.0,91,0.00,,OVC045,0.03,VWS V14.01,2013-02-24 00:07:00,
2013-02-23 19:12:00,35.8,33.4,29.89,NNW,329,1.0,1.0,91,0.00,,OVC045,0.03,VWS V14.01,2013-02-24 00:12:00,
2013-02-23 19:17:00,35.8,33.4,29.90,North,352,2.0,5.0,91,0.00,,OVC043,0.03,VWS V14.01,2013-02-24 00:17:00,
2013-02-23 19:22:00,35.6,32.7,29.90,NW,326,3.0,5.0,89,0.00,,OVC043,0.03,VWS V14.01,2013-02-24 00:22:00,
2013-02-23 19:27:00,35.2,32.0,29.90,NW,314,2.0,6.0,88,0.00,,OVC043,0.03,VWS V14.01,2013-02-24 00:27:00,
2013-02-23 19:30:00,32.8,30.2,29.88,NW,321,2.0,6.0,90,0.00,,OVC,0.03,VWS V14.01,2013-02-24 00:30:00,
2013-02-23 19:32:00,34.9,32.0,29.90,NNW,340,3.0,6.0,89,0.00,,OVC043,0.03,VWS V14.01,2013-02-24 00:32:00,
2013-02-23 19:38:00,34.6,31.7,29.90,NNW,329,5.0,5.0,89,0.00,,OVC043,0.03,VWS V14.01,2013-02-24 00:38:00,
2013-02-23 19:43:00,34.4,31.5,29.90,NNW,335,2.0,5.0,89,0.00,,OVC043,0.03,VWS V14.01,2013-02-24 00:43:00,
2013-02-23 19:48:00,34.0,31.1,29.90,NW,304,0.0,6.0,89,0.00,,OVC037,0.03,VWS V14.01,2013-02-24 00:48:00,
2013-02-23 19:53:00,33.8,30.9,29.90,North,352,3.0,6.0,89,0.00,,OVC037,0.03,VWS V14.01,2013-02-24 00:53:00,
2013-02-23 19:58:00,33.7,30.8,29.90,North,357,3.0,6.0,89,0.00,,OVC037,0.03,VWS V14.01,2013-02-24 00:58:00,
2013-02-23 20:00:00,32.4,30.1,29.90,NW,318,2.0,5.0,91,0.00,,OVC,0.03,VWS V14.01,2013-02-24 01:00:00,
2013-02-23 20:03:00,33.5,30.6,29.89,NNW,329,3.0,3.0,89,0.00,,OVC035,0.03,VWS V14.01,2013-02-24 01:03:00,
2013-02-23 20:08:00,33.3,30.7,29.90,NNW,337,3.0,5.0,90,0.00,,OVC035,0.03,VWS V14.01,2013-02-24 01:08:00,
2013-02-23 20:13:00,33.2,30.6,29.89,NW,319,3.0,5.0,90,0.00,,OVC035,0.03,VWS V14.01,2013-02-24 01:13:00,
2013-02-23 20:18:00,33.1,30.5,29.89,North,349,2.0,6.0,90,0.00,,OVC035,0.03,VWS V14.01,2013-02-24 01:18:00,
2013-02-23 20:23:00,33.0,30.4,29.89,NNW,329,3.0,6.0,90,0.00,,OVC035,0.03,VWS V14.01,2013-02-24 01:23:00,
2013-02-23 20:29:00,32.9,30.3,29.89,North,349,2.0,6.0,90,0.00,,OVC035,0.03,VWS V14.01,2013-02-24 01:29:00,
2013-02-23 20:30:00,32.0,29.4,29.90,NNE,16,2.0,9.0,90,0.00,,OVC,0.03,VWS V14.01,2013-02-24 01:30:00,
2013-02-23 20:34:00,32.8,30.2,29.88,NW,319,4.0,4.0,90,0.00,,OVC032,0.03,VWS V14.01,2013-02-24 01:34:00,
2013-02-23 20:39:00,32.7,30.1,29.89,NNW,335,2.0,4.0,90,0.00,,OVC032,0.03,VWS V14.01,2013-02-24 01:39:00,
2013-02-23 20:44:00,32.6,30.0,29.89,NNW,329,2.0,4.0,90,0.00,,OVC032,0.03,VWS V14.01,2013-02-24 01:44:00,
2013-02-23 20:49:00,32.6,30.3,29.89,NW,314,2.0,4.0,91,0.00,,OVC032,0.03,VWS V14.01,2013-02-24 01:49:00,
2013-02-23 20:54:00,32.5,30.2,29.89,WNW,285,2.0,4.0,91,0.00,,OVC032,0.03,VWS V14.01,2013-02-24 01:54:00,
2013-02-23 20:59:00,32.5,30.2,29.90,WNW,285,2.0,5.0,91,0.00,,OVC032,0.03,VWS V14.01,2013-02-24 01:59:00,
2013-02-23 21:00:00,31.5,28.9,29.90,NE,37,1.0,7.0,90,0.00,,OVC,0.03,VWS V14.01,2013-02-24 02:00:00,
2013-02-23 21:04:00,32.4,30.1,29.89,NNW,347,2.0,4.0,91,0.00,,OVC032,0.03,VWS V14.01,2013-02-24 02:04:00,
2013-02-23 21:10:00,32.3,30.0,29.90,North,356,2.0,4.0,91,0.00,,OVC032,0.03,VWS V14.01,2013-02-24 02:10:00,
2013-02-23 21:15:00,32.3,30.0,29.90,NNW,329,3.0,9.0,91,0.00,,OVC032,0.03,VWS V14.01,2013-02-24 02:15:00,
2013-02-23 21:20:00,32.2,29.9,29.90,North,350,3.0,9.0,91,0.00,,OVC032,0.03,VWS V14.01,2013-02-24 02:20:00,
2013-02-23 21:25:00,32.1,29.8,29.90,NW,307,3.0,9.0,91,0.00,,OVC032,0.03,VWS V14.01,2013-02-24 02:25:00,
2013-02-23 21:30:00,32.0,29.7,29.89,NW,311,3.0,9.0,91,0.00,,OVC032,0.03,VWS V14.01,2013-02-24 02:30:00,
2013-02-23 21:35:00,31.9,29.3,29.90,NW,309,2.0,6.0,90,0.00,,OVC032,0.03,VWS V14.01,2013-02-24 02:35:00,
2013-02-23 21:40:00,31.8,29.2,29.90,NW,316,1.0,6.0,90,0.00,,OVC032,0.03,VWS V14.01,2013-02-24 02:40:00,
2013-02-23 21:45:00,31.7,29.1,29.90,NW,308,2.0,7.0,90,0.00,,OVC045,0.03,VWS V14.01,2013-02-24 02:45:00,
2013-02-23 21:51:00,31.6,29.0,29.89,NNW,340,4.0,7.0,90,0.00,,OVC045,0.03,VWS V14.01,2013-02-24 02:51:00,
2013-02-23 21:56:00,31.6,29.0,29.89,NW,308,3.0,7.0,90,0.00,,OVC045,0.03,VWS V14.01,2013-02-24 02:56:00,
2013-02-23 22:00:00,31.5,28.9,29.87,West,280,1.0,5.0,90,0.00,,OVC,0.03,VWS V14.01,2013-02-24 03:00:00,
2013-02-23 22:01:00,31.5,28.9,29.90,NNW,328,2.0,7.0,90,0.00,,OVC045,0.03,VWS V14.01,2013-02-24 03:01:00,
2013-02-23 22:06:00,31.5,28.9,29.89,NW,313,0.0,4.0,90,0.00,,OVC045,0.03,VWS V14.01,2013-02-24 03:06:00,
2013-02-23 22:11:00,31.5,28.9,29.89,North,356,1.0,4.0,90,0.00,,OVC045,0.03,VWS V14.01,2013-02-24 03:11:00,
2013-02-23 22:16:00,31.5,28.9,29.89,NNE,30,4.0,5.0,90,0.00,,OVC045,0.03,VWS V14.01,2013-02-24 03:16:00,
2013-02-23 22:22:00,31.5,28.9,29.89,NW,321,0.0,5.0,90,0.00,,OVC045,0.03,VWS V14.01,2013-02-24 03:22:00,
2013-02-23 22:27:00,31.5,28.9,29.89,NW,308,3.0,5.0,90,0.00,,OVC045,0.03,VWS V14.01,2013-02-24 03:27:00,
2013-02-23 22:30:00,31.5,28.9,29.87,West,275,1.0,4.0,90,0.00,,OVC,0.03,VWS V14.01,2013-02-24 03:30:00,
2013-02-23 22:32:00,31.5,28.9,29.88,North,349,2.0,5.0,90,0.00,,,0.03,VWS V14.01,2013-02-24 03:32:00,
2013-02-23 22:37:00,31.5,28.9,29.88,WNW,297,4.0,4.0,90,0.00,,,0.03,VWS V14.01,2013-02-24 03:37:00,
2013-02-23 22:42:00,31.5,28.9,29.88,NNW,337,1.0,4.0,90,0.00,,,0.03,VWS V14.01,2013-02-24 03:42:00,
2013-02-23 22:47:00,31.5,28.9,29.88,NW,308,2.0,4.0,90,0.00,,,0.03,VWS V14.01,2013-02-24 03:47:00,
2013-02-23 22:52:00,31.5,28.9,29.88,NW,312,4.0,4.0,90,0.00,,,0.03,VWS V14.01,2013-02-24 03:52:00,
2013-02-23 22:57:00,31.4,28.8,29.88,SW,231,0.0,5.0,90,0.00,,,0.03,VWS V14.01,2013-02-24 03:57:00,
2013-02-23 23:00:00,31.8,28.4,29.88,West,273,2.0,3.0,87,0.00,,OVC,0.03,VWS V14.01,2013-02-24 04:00:00,
2013-02-23 23:02:00,31.5,28.9,29.87,West,280,1.0,5.0,90,0.00,,,0.03,VWS V14.01,2013-02-24 04:02:00,
2013-02-23 23:08:00,31.4,28.8,29.87,West,274,1.0,4.0,90,0.00,,,0.03,VWS V14.01,2013-02-24 04:08:00,
2013-02-23 23:13:00,31.4,28.8,29.87,WSW,256,0.0,4.0,90,0.00,,,0.03,VWS V14.01,2013-02-24 04:13:00,
2013-02-23 23:18:00,31.5,28.9,29.87,WSW,257,1.0,4.0,90,0.00,,,0.03,VWS V14.01,2013-02-24 04:18:00,
2013-02-23 23:23:00,31.5,28.9,29.88,West,266,1.0,4.0,90,0.00,,,0.03,VWS V14.01,2013-02-24 04:23:00,
2013-02-23 23:28:00,31.5,28.9,29.87,WSW,252,2.0,4.0,90,0.00,,,0.03,VWS V14.01,2013-02-24 04:28:00,
2013-02-23 23:30:00,32.1,27.2,29.87,WSW,257,3.0,3.0,82,0.00,,OVC,0.00,VWS V14.01,2013-02-24 04:30:00,
2013-02-23 23:33:00,31.5,28.9,29.87,WSW,258,1.0,2.0,90,0.00,,,0.03,VWS V14.01,2013-02-24 04:33:00,
2013-02-23 23:38:00,31.6,29.0,29.88,West,276,1.0,3.0,90,0.00,,,0.03,VWS V14.01,2013-02-24 04:38:00,
2013-02-23 23:44:00,31.6,29.0,29.88,WSW,256,1.0,3.0,90,0.00,,,0.03,VWS V14.01,2013-02-24 04:44:00,
2013-02-23 23:49:00,31.7,28.8,29.88,West,266,0.0,3.0,89,0.00,,,0.03,VWS V14.01,2013-02-24 04:49:00,
2013-02-23 23:54:00,31.7,28.8,29.88,West,262,0.0,3.0,89,0.00,,,0.03,VWS V14.01,2013-02-24 04:54:00,
2013-02-23 23:59:00,31.8,28.7,29.88,West,269,0.0,3.0,88,0.00,,,0.03,VWS V14.01,2013-02-24 04:59:00,